Volver al catálogo

FENGYUN 1C DEB

ActivoSSO
NORAD 37690·DEBRIS·🇨🇳 China

Lanzado May 10, 1999 desde Taiyuan Satellite Launch Center

Loading…

Próximos Pases (próximas 24 horas)

TLE

ObsoletoSource: Space-Track

Época: Aug 26, 2026, 08:18 UTC

1 37690U 99025ELF 26238.34641382  .00001185  00000-0  59655-3 0  9990
2 37690  98.7368 280.6094 0038222 279.9041 139.8849 14.17949965674011

Sigue FENGYUN 1C DEB en tiempo real con AllMySat

Download on the App Store